Regional Weather Roundup
Issued by NWS

Home | Current Version | Previous Version | Graphics & Text | Print | Product List | Glossary On
Versions: 1 2 3 4 5 6 7 8 9 10 11 12 13 14 15 16 17 18 19 20 21 22 23 24 25 26 27 28 29 30 31 32 33 34 35 36 37 38 39 40 41 42 43 44 45 46 47 48 49 50
000
ASUS43 KFSD 020102
RWRSD

WEATHER ROUNDUP FOR SOUTH DAKOTA
NATIONAL WEATHER SERVICE SIOUX FALLS SD
800 PM CDT SAT AUG 01 2015

NOTE: "FAIR" INDICATES FEW OR NO CLOUDS BELOW 12,000 FEET WITH NO
SIGNIFICANT WEATHER AND/OR OBSTRUCTIONS TO VISIBILITY.


SDZ001>005-009-010-012>017-020200-
NORTHWEST AND NORTH CENTRAL SOUTH DAKOTA

CITY           SKY/WX    TMP DP  RH WIND       PRES   REMARKS
BUFFALO          N/A     92  32  12 W13       29.79F
FAITH            N/A     91  37  15 NE5       29.85F
MOBRIDGE       SUNNY     89  61  38 NW3       29.77S
$$

SDZ012>016-024>037-041>051-057-063-072>074-020200-
SOUTHWEST AND SOUTH CENTRAL SOUTH DAKOTA

CITY           SKY/WX    TMP DP  RH WIND       PRES   REMARKS
RAPID CTY ARPT SUNNY     86  58  38 S6        29.91F
PIERRE         SUNNY     89  46  22 NW9       29.80R
CUSTER         SUNNY     78  48  34 SE6       30.11F
PHILIP         SUNNY     87  64  46 SW8       29.85S
PINE RIDGE     MOSUNNY   80  65  59 E13       29.95S
WINNER         FAIR      86  57  37 SW15      29.87F
$$

SDZ004>011-016>023-039-040-020200-
NORTHEAST SOUTH DAKOTA

CITY           SKY/WX    TMP DP  RH WIND       PRES   REMARKS
ABERDEEN       CLEAR     88  65  46 N7        29.73S
WATERTOWN      CLEAR     81  66  60 S10       29.78F
BROOKINGS      PTCLDY    79  63  57 S9        29.83F
SISSETON         N/A     83  66  56 SW6       29.72F
$$

SDZ017-020-022-023-036>040-048>070-020200-
SOUTHEAST SOUTH DAKOTA

CITY           SKY/WX    TMP DP  RH WIND       PRES   REMARKS
SIOUX FALLS    PTCLDY    81  63  54 SW9       29.84F
HURON          PTCLDY    86  64  47 SW8       29.77F
CHAMBERLAIN    CLEAR     84  62  46 SW10      29.83F
MITCHELL       PTCLDY    86  64  47 SW9       29.81F
YANKTON        CLEAR     84  63  48 S6        29.84F
$$

ABBREVIATIONS USED IN REMARKS
   TC - TEMPERATURE IN CELSIUS
  WCI - WIND CHILL INDEX
   HX - HEAT INDEX
  VSB - VISIBILITY



USA.gov is the U.S. government's official web portal to all federal, state and local government web resources and services.